{"data":{"norad_id":56894,"intl_designator":"2023-083U","name":"STARLINK-6144","alt_names":[],"object_type":"PAYLOAD","status":"ACTIVE","operator":null,"country":"US","launch_date":"2023-06-12","launch_site_code":"AFETR","launch_vehicle":null,"mission":null,"orbit_class":"UNKNOWN","rcs_meters":null,"size_class":null,"mass_kg":null,"dimensions":null,"purposes":["comms"],"wikipedia_slug":null,"has_3d_model":false,"image_url":null,"decayed_at":null,"tle_current":{"epoch":"2026-09-19T18:42:31.817088Z","epoch_age_seconds":179896,"freshness":"STALE","line1":"1 56894U 23083U   26262.77953492 -.00000880  00000+0 -22456-4 0  9992","line2":"2 56894  43.0032  72.5097 0001287 267.7821  92.2884 15.27569851181391","mean_motion":15.27569851,"eccentricity":0.0001287,"inclination_deg":43.0032,"raan_deg":72.5097,"arg_perigee_deg":267.7821,"mean_anomaly_deg":92.2884,"bstar":-2.2456e-5,"rev_number":18139,"period_min":94.267375011187,"perigee_km":482.19644740325,"apogee_km":483.96252452674,"semimajor_km":6861.216485965,"source":"CELESTRAK","updated_at":"2026-09-21T09:00:33.523109Z"}}}